Change the Weather History Date:

Sunday, September 29, 2013

  Actual Average Record
Temperature  
Mean Temperature 56 °F -  
Max Temperature 72 °F 63 °F 75 °F (2010)
Min Temperature 42 °F 41 °F 36 °F (1998)
Degree Days  
Heating Degree Days 8    
Growing Degree Days 6 (Base 50)    
Moisture  
Dew Point 44 °F    
Average Humidity 84    
Maximum Humidity 100    
Minimum Humidity 35    
Precipitation  
Precipitation 0.00 in - - ()
Sea Level Pressure  
Sea Level Pressure 30.21 in    
Wind  
Wind Speed 0 mph (ESE)    
Max Wind Speed 6 mph    
Max Gust Speed -    
Visibility 6 miles    
Events Fog    
Averages and records for this station are not official NWS values.
T = Trace of Precipitation, MM = Missing Value Source: NWS Daily Summary

Daily Weather History Graph

Daily Weather History Graph

Search for Another Location

Airport or City:

Trip Planner

Search our weather history database for the weather conditions in past years. The results will help you decide how hot, cold, wet, or windy it might be!

Date:

Astronomy

Sep. 29, 2013 Rise Set
Actual Time 6:47 AM EDT 6:37 PM EDT
Civil Twilight 6:19 AM EDT 7:05 PM EDT
Nautical Twilight 5:46 AM EDT 7:37 PM EDT
Astronomical Twilight 5:13 AM EDT 8:11 PM EDT
Moon 1:20 AM EDT (9/29) 3:37 PM EDT (9/29)
Length of Visible Light 12h 45m
Length of Day
11h 49m
Waning Crescent, 27% of the Moon is Illuminated
Sep 29
Waning Crescent
Oct 4
New
Oct 11
First Quarter
Oct 18
Full
Oct 26
Last Quarter

Hourly Weather History & Observations

Time (EDT) Temp. Dew Point Humidity Pressure Visibility Wind Dir Wind Speed Gust Speed Precip Events Conditions
12:52 AM 46.9 °F 44.1 °F 90% 30.27 in 10.0 mi Calm Calm - N/A   Clear
1:44 AM 46.4 °F 42.8 °F 87% 30.27 in 10.0 mi Calm Calm - N/A   Scattered Clouds
1:52 AM 45.0 °F 43.0 °F 93% 30.27 in 1.2 mi Calm Calm - N/A   Mostly Cloudy
1:54 AM 44.6 °F 42.8 °F 93% 30.27 in 0.8 mi Calm Calm - N/A   Mist
2:02 AM 44.6 °F 42.8 °F 93% 30.26 in 1.5 mi Calm Calm - N/A   Mostly Cloudy
2:04 AM 44.6 °F 42.8 °F 93% 30.26 in 4.0 mi Calm Calm - N/A   Mostly Cloudy
2:14 AM 44.6 °F 42.8 °F 93% 30.26 in 9.0 mi Calm Calm - N/A   Scattered Clouds
2:41 AM 44.6 °F 41.0 °F 87% 30.26 in 9.0 mi Calm Calm - N/A   Mostly Cloudy
2:52 AM 44.1 °F 42.1 °F 93% 30.26 in 9.0 mi Calm Calm - N/A   Mostly Cloudy
3:10 AM 44.6 °F 41.0 °F 87% 30.25 in 10.0 mi Calm Calm - N/A   Partly Cloudy
3:29 AM 42.8 °F 42.8 °F 100% 30.24 in 1.8 mi Calm Calm - N/A   Scattered Clouds
3:39 AM 42.8 °F 39.2 °F 87% 30.24 in 3.0 mi Calm Calm - N/A   Partly Cloudy
3:49 AM 42.8 °F 41.0 °F 93% 30.24 in 1.8 mi Calm Calm - N/A   Mostly Cloudy
3:52 AM 42.1 °F 41.0 °F 96% 30.25 in 1.2 mi Calm Calm - N/A   Mostly Cloudy
3:59 AM 42.8 °F 41.0 °F 93% 30.24 in 2.5 mi Calm Calm - N/A   Mostly Cloudy
4:06 AM 42.8 °F 39.2 °F 87% 30.24 in 10.0 mi Calm Calm - N/A   Mostly Cloudy
4:20 AM 42.8 °F 42.8 °F 100% 30.24 in 1.8 mi Calm Calm - N/A   Overcast
4:28 AM 42.8 °F 41.0 °F 93% 30.23 in 3.0 mi Calm Calm - N/A   Overcast
4:38 AM 44.6 °F 42.8 °F 93% 30.23 in 1.8 mi Calm Calm - N/A   Overcast
4:52 AM 44.1 °F 43.0 °F 96% 30.24 in 1.0 mi Calm Calm - N/A   Mist
5:02 AM 44.6 °F 42.8 °F 93% 30.24 in 0.5 mi Calm Calm - N/A Fog Fog
5:14 AM 44.6 °F 44.6 °F 100% 30.24 in 0.2 mi Calm Calm - N/A Fog Fog
5:22 AM 44.6 °F 42.8 °F 93% 30.24 in 0.2 mi Calm Calm - N/A Fog Fog
5:52 AM 45.0 °F 44.1 °F 97% 30.24 in 0.2 mi Calm Calm - N/A Fog Fog
6:20 AM 44.6 °F 44.6 °F 100% 30.23 in 0.2 mi Calm Calm - N/A Fog Fog
6:52 AM 45.0 °F 45.0 °F 100% 30.25 in 0.2 mi Calm Calm - N/A Fog Fog
7:52 AM 45.0 °F 44.1 °F 97% 30.25 in 0.2 mi Calm Calm - N/A Fog Fog
8:52 AM 46.9 °F 46.9 °F 100% 30.24 in 0.2 mi Calm Calm - N/A Fog Fog
9:11 AM 48.2 °F 46.4 °F 93% 30.24 in 1.0 mi Calm Calm - N/A   Overcast
9:25 AM 48.2 °F 48.2 °F 100% 30.23 in 2.0 mi Calm Calm - N/A   Overcast
9:32 AM 48.2 °F 48.2 °F 100% 30.23 in 10.0 mi Calm Calm - N/A   Mostly Cloudy
9:45 AM 51.8 °F 48.2 °F 88% 30.23 in 10.0 mi Calm Calm - N/A   Scattered Clouds
9:52 AM 51.1 °F 48.9 °F 92% 30.23 in 10.0 mi Calm Calm - N/A   Partly Cloudy
10:52 AM 61.0 °F 51.1 °F 70% 30.22 in 10.0 mi Calm Calm - N/A   Clear
11:52 AM 68.0 °F 48.0 °F 49% 30.19 in 10.0 mi Calm Calm - N/A   Clear
12:52 PM 70.0 °F 42.1 °F 36% 30.17 in 10.0 mi SSE 5.8 mph - N/A   Clear
1:52 PM 71.1 °F 43.0 °F 36% 30.15 in 10.0 mi East 4.6 mph - N/A   Clear
2:52 PM 71.1 °F 43.0 °F 36% 30.12 in 10.0 mi ESE 5.8 mph - N/A   Clear
3:52 PM 71.1 °F 42.1 °F 35% 30.11 in 10.0 mi ESE 5.8 mph - N/A   Clear
4:52 PM 70.0 °F 43.0 °F 38% 30.09 in 10.0 mi East 4.6 mph - N/A   Clear
5:52 PM 64.9 °F 48.0 °F 54% 30.09 in 10.0 mi ESE 5.8 mph - N/A   Clear
6:52 PM 60.1 °F 48.0 °F 64% 30.10 in 10.0 mi East 3.5 mph - N/A   Clear
7:52 PM 54.0 °F 48.0 °F 80% 30.12 in 10.0 mi SE 3.5 mph - N/A   Clear
8:52 PM 51.1 °F 46.9 °F 86% 30.13 in 10.0 mi Calm Calm - N/A   Clear
9:52 PM 50.0 °F 46.9 °F 89% 30.13 in 10.0 mi Calm Calm - N/A   Clear
10:52 PM 48.9 °F 46.0 °F 90% 30.13 in 10.0 mi Calm Calm - N/A   Clear
11:52 PM 46.9 °F 44.1 °F 90% 30.13 in 10.0 mi Calm Calm - N/A   Clear